NOAA 16 DEB

Satellite information

Favourite Embed

Satellite Type and Status

DEBRISIN ORBIT

Key statistics

Satellite NOAA 16 DEB at a glance.

Uptime

9214

Days in orbit

Revolutions

≈ 14.2

Per day

Orbit

SSO

Sun Synchronous Orbit

Inclination

98.7

Latest

Satellite identification and parameters

Extended collection of information and parameters for NOAA 16 DEB.

Object identification

Identified? True

Debris? True

Object name: NOAA 16 DEB

International designator: 2000-055JT

Object number (NORAD): 41374

Object ID (CCSDS): 41374

Country: UNITED STATES OF AMERICA (US)

Current information (Y/N): Y

RCS size: SMALL

Orbital parameters

Period: 101.493 minutes

Inclination: 98.7248 deg

SMA: 7207.483 km

Apoapsis: 852.005 km

Periapsis: 806.69 km

RAAN: 33.3151 deg

Eccentricy: 0.0031436

Argument of periapsis: 344.5853 deg

Mean anomaly: 15.4363 deg

Mean motion: 14.18820155 rev/day

Mean motion (dot): 0.00004802 rev/day2

B* drag term: 0.0023174887 1/REarth

Two-line elements (TLE)

Creation date: Dec. 12, 2025, 10:14 a.m.

Reference frame: TEME

Reference center: EARTH

Epoch: Dec. 12, 2025, 2:22 a.m. UTC

TLE line 0: 0 NOAA 16 DEB

TLE line 1: 1 41374U 00055JT 25346.09861227 .00004802 00000-0 23175-2 0 9998

TLE line 2: 2 41374 98.7248 33.3151 0031436 344.5853 15.4363 14.18820155508925

Live tracking on map

Real-time ground track for satellite NOAA 16 DEB.

In-orbit conjunctions

A list of the most updated potential collisions computed for object NOAA 16 DEB.

Target Orbit TCA Probability of collision Miss distance Type
FENGYUN 1C DEB SSO 2025-09-20 11:31:36 0.0005626637 70.0 (m) DEBRIS
CZ-6A DEB SSO 2024-12-05 10:52:58 0.000571605 40.0 (m) DEBRIS

Associated space launch

The NOAA K, L and M POES satellites begin the fifth generation of improved environmental monitoring in support of NOAA missions. The instrument payload has significant improvements and additions/deletions. The instrument changes have effected the spacecraft subsystems and data formats.

NOAA 16 DEB was lifted into orbit during the mission ‘Titan II SLV | NOAA 16’, on board a Titan II SLV space rocket.

The launch took place on Sept. 21, 2000, 10:22 a.m. from Space Launch Complex 4W.

For more information about the launch, click the button.

Launch to space Titan II SLV | NOAA 16
Titan II SLV | NOAA 16

Agency: N/A

Status: Launch Successful

Launch date: Sept. 21, 2000, 10:22 a.m. UTC

Rocket: Titan II SLV

Launch pad: Space Launch Complex 4W

Location: Vandenberg SFB, CA, USA

...

Latest news about this satellite

There are no fresh news available about this satellite. Check back as we update our databases every day.


Newsletter sign-up

Weekly statistics, charts and insights to help you stay on top of the space industry.